User: anonymous   Login
Location: Unspecified
(0.0000°N, 0.0000°E)
Time: 20:48:21
(UTC+00:00)
Language:

Astrid - Orbit

View from above orbital plane
View from above orbital plane
View from above satellite
View from above satellite

Ground track
Ground track

The orbit data is extracted from the following two-line orbital elements,

1 23464U 95002B   18140.81179888 +.00000069 +00000-0 +58568-4 0  9990
2 23464 082.9302 039.7382 0042250 062.7594 297.7855 13.72549006167872
Epoch (UTC): 20 May 2018 19:28:59
Eccentricity: 0.0042250
inclination: 82.9302°
perigee height: 959 km
apogee height: 1021 km
right ascension of ascending node: 39.7382°
argument of perigee: 62.7594°
revolutions per day: 13.72549006
mean anomaly at epoch: 297.7855°
orbit number at epoch: 16787

The dashed part of the orbit path shows where the satellite is in the earth's shadow,  

DLR